Skip Page Navigation
NASA JPL Caltech
NASA Logo - Jet Propulsion Laboratory + View the NASA Portal
+ Center for Near-Earth Object Studies
JPL Home Earth Solar System Stars & Galaxies Technology
JPL Solar System Dynamics
BODIES ORBITS EPHEMERIDES TOOLS PHYSICAL DATA DISCOVERY FAQ SITE MAP
JPL Small-Body Database Browser
Search: [ help ]  
3615 Safronov (1983 WZ)
Classification: Main-belt Asteroid          SPK-ID: 2003615
Ephemeris | Orbit Diagram | Orbital Elements | Mission Design | Physical Parameters | Discovery Circumstances | Close-Approach Data ]

[ show orbit diagram ]
Orbital Elements at Epoch 2459396.5 (2021-Jul-01.0) TDB
Reference: JPL 43 (heliocentric ecliptic J2000)
 Element Value Uncertainty (1-sigma)   Units 
e .1317120188228648 1.6469e-08  
a 3.165454011913082 1.3422e-08 au
q 2.748525673513073 5.1832e-08 au
i 2.111982145779656 6.854e-07 deg
node 134.8737567493265 1.0898e-05 deg
peri 112.3137419618869 1.4655e-05 deg
M 65.87132752468101 7.9406e-06 deg
tp 2459020.102825427969
(2020-Jun-19.60282543)
4.5084e-05 TDB
period 2057.085957394134
5.63
1.3083e-05
3.582e-08
d
yr
n .1750048405639009 1.1131e-09 deg/d
Q 3.58238235031309 1.519e-08 au
  Orbit Determination Parameters
   # obs. used (total)      3016  
   data-arc span      33270 days (91.09 yr)  
   first obs. used      1930-05-25  
   last obs. used      2021-06-26  
   planetary ephem.      DE441  
   SB-pert. ephem.      SB441-N16  
   condition code      0  
   norm. resid. RMS      .43067  
   source      ORB  
   producer      Otto Matic  
   solution date      2021-Jul-07 22:35:50  

Additional Information
 Earth MOID = 1.736 au 
 Jupiter MOID = 1.44273 au 
 T_jup = 3.189 
[ show covariance matrix ]

Ephemeris | Orbit Diagram | Orbital Elements | Mission Design | Physical Parameters | Discovery Circumstances | Close-Approach Data ]

Physical Parameter Table
Parameter Symbol Value Units Sigma Reference Notes
absolute magnitude H 11.59   n/a MPO614063  
diameter diameter 25.209 km 0.139 urn:nasa:pds:neowise_diameters_albedos::2.0[mainbelt] (http://adsabs.harvard.edu/abs/2014ApJ...791..121M)  
rotation period rot_per 22.71 h n/a LCDB (Rev. 2020-October); Warner et al., 2009 Result based on less than full coverage, so that the period may be wrong by 30 percent or so.
Published Reference List:
[Polakis, T. (2020) Minor Planet Bull. 47, 314-321.]
geometric albedo albedo 0.099   0.011 urn:nasa:pds:neowise_diameters_albedos::2.0[mainbelt] (http://adsabs.harvard.edu/abs/2014ApJ...791..121M)  

3615 Safronov (1983 WZ)          Discovered 1983-Nov-29 by Bowell, E. at Flagstaff (AM)
Discovered at the Anderson Mesa station, which is operated by the Lowell Observatory.
Reference: DISCOVERY.DBLast Updated: 2003-08-29

[ show close-approach data ]
Alternate Designations
 1983 WZ = 1930 KS = 1951 AR = 1952 FK1 = 1969 JJ = 1970 PO = 1974 EM = 1976 SB7 
Ephemeris | Orbit Diagram | Orbital Elements | Mission Design | Physical Parameters | Discovery Circumstances | Close-Approach Data ]
ABOUT SSD CREDITS/AWARDS PRIVACY/COPYRIGHT GLOSSARY LINKS
FirstGov 2021-Jul-29 10:07 UT
(server date/time)  
NASA Home Page
Site Manager:   Ryan S. Park
Webmaster  Alan B. Chamberlin